Погода в Липканах

Молдова     48°16′10″N   26°48′00″E
темп.,
°C
ветер,
м/с
пор.,
м/с
влажн.,
%
обл.,
%
осадки,
мм/ч
давл.,
гПа
погр.,
м
21 апреля, ср
ср2100:00+7сз34745 0.0 101261
03:00+6з2280100 0.0 101220
06:00+6з228371 0.0 101332
09:00+9зсз456742 0.0 1014451
12:00+13з455436 0.1 10141371
15:00+16з344072 0.2 10132241
18:00+15зсз134399 0.0 10131079
21:00+10ююз51067100 0.1 1015260
22 апреля, чт
чт2200:00+10ююз267334 0.0 1016187
03:00+8ююз2274100 0.0 101631
06:00+7юз2271100 0.0 101611
09:00+11юз23615 0.0 1017249
12:00+17юз454496 0.0 10161720
15:00+15зсз345543 0.2 1016580
18:00+15сз346097 0.5 1015423
21:00+11юв117543 1.8 101512
23 апреля, пт
пт2300:00+8сз6118927 0.6 1016452
03:00+6сз598899 0.6 1017556
06:00+6сз5781100 0.0 1018698
09:00+6сз4676100 0.3 10191075
12:00+6сз5679100 2.6 1020742
15:00+10зсз3545100 2.6 10191810
18:00+10зсз675292 0.1 10181534
21:00+6з4769100 0.1 1020198
24 апреля, сб
сб2400:00+4зюз237798 0.0 102046
03:00+5зсз41074100 0.2 10201065
06:00+2зсз815756 0.0 1021887
09:00+5сз813575 0.0 10221737
12:00+8сз81137100 0.0 10232656
15:00+9сз8133666 0.0 10222710
18:00+9сз7103947 0.0 10222238
21:00+5ссз225644 0.0 102323
25 апреля, вс
вс2500:00+4ююз225912 0.0 102311
03:00+2юз116916 0.0 102210
06:00+2юз1175100 0.0 102110
09:00+3ссз4594100 0.6 1022397
12:00+6сз5674100 0.4 1023918
15:00+9ссз8845100 0.5 10212067
18:00+9сз6739100 0.0 10212136
21:00+6сз355498 0.0 1023130